| time (UTC) | temp C | wind direction | speed KPH | gust KPH | rain 1hr cm | rain 24hr cm | rain mn cm | humidity % | barometer mb |
| 20260504234531 | 27 | 261 | 9.7 | 25.7 | 0.00 | 0.00 | 0.00 | 35 | 1010.7 |
| 20260504233030 | 27 | 269 | 11.3 | 25.7 | 0.00 | 0.00 | 0.00 | 34 | 1010.8 |
| 20260504231607 | 27 | 266 | 14.5 | 27.4 | 0.00 | 0.00 | 0.00 | 34 | 1010.8 |
| 20260504230031 | 27 | 264 | 12.9 | 25.7 | 0.00 | 0.00 | 0.00 | 34 | 1010.9 |
| 20260504223031 | 27 | 261 | 12.9 | 29.0 | 0.00 | 0.00 | 0.00 | 34 | 1011.1 |
| 20260504221531 | 27 | 268 | 12.9 | 29.0 | 0.00 | 0.00 | 0.00 | 34 | 1011.0 |
| 20260504220104 | 27 | 267 | 11.3 | 25.7 | 0.00 | 0.00 | 0.00 | 34 | 1011.2 |
| 20260504214530 | 26 | 266 | 14.5 | 30.6 | 0.00 | 0.00 | 0.00 | 35 | 1011.2 |
| 20260504213116 | 26 | 259 | 12.9 | 29.0 | 0.00 | 0.00 | 0.00 | 35 | 1011.2 |
| 20260504211533 | 26 | 270 | 12.9 | 29.0 | 0.00 | 0.00 | 0.00 | 35 | 1011.3 |
| 20260504210031 | 26 | 255 | 9.7 | 25.7 | 0.00 | 0.00 | 0.00 | 35 | 1011.3 |
| 20260504204531 | 27 | 265 | 9.7 | 25.7 | 0.00 | 0.00 | 0.00 | 35 | 1011.4 |
| 20260504203105 | 27 | 259 | 8.0 | 27.4 | 0.00 | 0.00 | 0.00 | 34 | 1011.6 |
| 20260504201530 | 26 | 318 | 4.8 | 17.7 | 0.00 | 0.00 | 0.00 | 36 | 1011.7 |
| 20260504200032 | 27 | 12 | 4.8 | 19.3 | 0.00 | 0.00 | 0.00 | 39 | 1011.7 |
| 20260504194530 | 27 | 32 | 6.4 | 12.9 | 0.00 | 0.00 | 0.00 | 40 | 1011.7 |
| 20260504193030 | 26 | 43 | 6.4 | 16.1 | 0.00 | 0.00 | 0.00 | 40 | 1011.7 |
| 20260504191608 | 26 | 54 | 8.0 | 14.5 | 0.00 | 0.00 | 0.00 | 41 | 1011.8 |
| 20260504184531 | 26 | 63 | 8.0 | 17.7 | 0.00 | 0.00 | 0.00 | 42 | 1011.9 |
| 20260504183030 | 26 | 60 | 9.7 | 17.7 | 0.00 | 0.00 | 0.00 | 41 | 1012.0 |
| 20260504180031 | 26 | 33 | 3.2 | 9.7 | 0.00 | 0.00 | 0.00 | 39 | 1012.0 |
| 20260504173030 | 26 | 33 | 4.8 | 11.3 | 0.00 | 0.00 | 0.00 | 38 | 1012.1 |
| 20260504171646 | 26 | 6 | 3.2 | 8.0 | 0.00 | 0.00 | 0.00 | 38 | 1012.1 |
| 20260504081530 | 8 | 175 | 0.0 | 4.8 | 0.00 | 0.00 | 0.00 | 82 | 1012.1 |
| 20260504080144 | 8 | 188 | 0.0 | 3.2 | 0.00 | 0.00 | 0.00 | 80 | 1012.2 |
| 20260504044531 | 15 | 198 | 3.2 | 6.4 | 0.00 | 0.00 | 0.00 | 58 | 1011.7 |
| 20260504043032 | 15 | 154 | 4.8 | 8.0 | 0.00 | 0.00 | 0.00 | 58 | 1011.6 |
| 20260504041531 | 16 | 135 | 4.8 | 6.4 | 0.00 | 0.00 | 0.00 | 58 | 1011.4 |
| 20260504040039 | 16 | 105 | 4.8 | 9.7 | 0.00 | 0.00 | 0.00 | 57 | 1011.2 |
| 20260504034531 | 17 | 209 | 0.0 | 4.8 | 0.00 | 0.00 | 0.00 | 53 | 1011.0 |
| 20260504033103 | 18 | 190 | 1.6 | 6.4 | 0.00 | 0.00 | 0.00 | 50 | 1010.8 |
| 20260504031532 | 20 | 157 | 4.8 | 9.7 | 0.00 | 0.00 | 0.00 | 48 | 1010.6 |
| 20260504030033 | 21 | 211 | 1.6 | 6.4 | 0.00 | 0.00 | 0.00 | 46 | 1010.5 |
| 20260504024530 | 23 | 247 | 3.2 | 6.4 | 0.00 | 0.00 | 0.00 | 40 | 1010.4 |
| 20260504023147 | 25 | 278 | 1.6 | 6.4 | 0.00 | 0.00 | 0.00 | 35 | 1010.4 |
| 20260504021647 | 26 | 337 | 0.0 | 3.2 | 0.00 | 0.00 | 0.00 | 31 | 1010.5 |
| 20260504020107 | 27 | 349 | 1.6 | 6.4 | 0.00 | 0.00 | 0.00 | 28 | 1010.7 |
| 20260504014532 | 27 | 333 | 3.2 | 9.7 | 0.00 | 0.00 | 0.00 | 28 | 1010.8 |
| 20260504013028 | 28 | 329 | 3.2 | 8.0 | 0.00 | 0.00 | 0.00 | 28 | 1010.9 |
| 20260504011538 | 29 | 323 | 3.2 | 8.0 | 0.00 | 0.00 | 0.00 | 25 | 1011.2 |
| 20260504004526 | 29 | 346 | 3.2 | 8.0 | 0.00 | 0.00 | 0.00 | 25 | 1011.3 |
| 20260504003032 | 29 | 17 | 4.8 | 12.9 | 0.00 | 0.00 | 0.00 | 25 | 1011.4 |
| 20260504000030 | 30 | 21 | 4.8 | 16.1 | 0.00 | 0.00 | 0.00 | 26 | 1011.6 |